Regional Weather Roundup
Issued by NWS Newport/Morehead, NC

Current Version | Previous Version | Graphics & Text | Print | Product List | Glossary Off
Versions: 1 2 3 4 5 6 7 8 9 10 11 12 13 14 15 16 17 18 19 20 21 22 23 24 25 26 27 28 29 30 31 32 33 34 35 36 37 38 39 40 41 42 43 44 45 46 47 48 49 50
729 ASUS42 KMHX 260325 RWRMHX WEATHER ROUNDUP FOR EASTERN NORTH CAROLINA NATIONAL WEATHER SERVICE NEWPORT/MOREHEAD CITY NC 1100 PM EDT WED MAY 25 2016 NOTE: "FAIR" INDICATES FEW OR NO CLOUDS BELOW 12,000 FEET WITH NO SIGNIFICANT WEATHER AND/OR OBSTRUCTIONS TO VISIBILITY NCZ015>017-031-032-045>047-102-103-260400- NORTH COAST CITY SKY/WX TMP DP RH WIND PRES REMARKS EDENTON CLEAR 73 68 82 S8 30.18S ELIZABETH CITY CLEAR 73 60 63 S10 30.17R KITTY HAWK CLEAR 71 62 74 SW6 30.17S MANTEO CLEAR 70 65 84 SW9 30.19S $$ NCZ045>047-081-094-103-104-260400- CENTRAL COAST CITY SKY/WX TMP DP RH WIND PRES REMARKS FRISCO CLEAR 71 66 84 SW9 30.21R $$ NCZ095-097-098-100-101-260400- SOUTHERN COAST CITY SKY/WX TMP DP RH WIND PRES REMARKS BEAUFORT CLEAR 72 68 87 S7 30.21R CEDAR ISLAND NOT AVBL JACKSONVILLE CLEAR 70 65 84 S6 30.20R PINEY ISLAND CLEAR N/A N/A N/A S5 30.20 WILMINGTON CLEAR 71 66 84 S6 30.21R $$ NCZ011>013-027>030-043-044-078>080-089-090>093-098-260400- COASTAL PLAIN CITY SKY/WX TMP DP RH WIND PRES REMARKS AHOSKIE NOT AVBL CLINTON CLEAR 71 64 76 CALM 30.19S ELIZABETHTOWN NOT AVBL GOLDSBORO CLEAR 74 63 70 S8 30.17R GREENVILLE CLEAR 72 61 68 SW9 30.19R HAVELOCK CLEAR 70 66 87 S7 30.21S KENANSVILLE PTCLDY 70 60 70 CALM 30.21R KINSTON CLEAR 71 61 71 S7 30.20R NEW BERN PTCLDY 70 63 78 S8 30.21R RICHLANDS PTCLDY 68 64 87 S8 30.20S ROCKY MOUNT CLEAR 72 61 68 S7 30.17R WASHINGTON CLEAR 71 58 64 S5 30.19R WHITEVILLE CLEAR 71 67 87 S6 30.20S $$ AMZ130-135-150-152-154-156-158-170-250-252-270-ANZ085-086-088-633-658-670-260400- MARINE OBSERVATIONS STATION/POSITION TIME TEMP WIND PRES WAVE SWELL AIR SEA DIR/SP/G HT/PER HT/PER (UTC) (F) (DEG/KT/KT) (MB) (FT/S) (FT/S) CHESAPEAKE LIGHT 0300 75 210/ 17/ 17 1021.1 64 E VA BEACH 0250 65 60 210/ 12/ 14 1021.3 3/ 8 2/ 8 DUCK 0200 63 200/ 11/ 15 1020.9 2 E DUCK 0211 63 N/A 2/ 9 OREGON INLET 0200 73 200/ 12/ 14 1021.9 13E OREGON INLT 0300 66 N/A 2/ 9 2/ 9 HATTERAS CG 0200 72 210/ 8/ 11 1022.3 DIAMOND BUOY 0250 73 70 220/ 8/ 8 1022.8 2/ 8 2/ 8 CAPE LOOKOUT 0300 72 210/ 7/ 8 1022.7 BEAUFORT LAB 0200 71 210/ 6/ 8 1022.0 30 SE NEW RVR IN 0225 74 N/A 2/ 8 27 SE WRIGHTSVLE 0308 75 74 210/ 8/ 10 1023.1 5 SE WRIGHTSVLE 0208 73 73 210/ 8/ 10 1023.4 225 S CAPE HAT 0250 75 78 80/ 10/ 14 1023.8 2/ 9 2/ 9 41 SE CHARLESTON 0250 78 77 180/ 10/ 12 1022.9 2/ 8 2/ 8 $$

USA.gov is the U.S. government's official web portal to all federal, state and local government web resources and services.